Regional Weather Roundup
Issued by NWS

Home | Current Version | Previous Version | Graphics & Text | Print | Product List | Glossary On
Versions: 1 2 3 4 5 6 7 8 9 10 11 12 13 14 15 16 17 18 19 20 21 22 23 24 25 26 27 28 29 30 31 32 33 34 35 36 37 38 39 40 41 42 43 44 45 46 47 48 49 50
000
ASUS43 KMKX 230421
RWRWI

WISCONSIN REGIONAL WEATHER ROUNDUP
NATIONAL WEATHER SERVICE MILWAUKEE/SULLIVAN WI
1100 PM CDT TUE AUG 22 2017

NOTE: "FAIR" INDICATES FEW OR NO CLOUDS BELOW 12,000 FEET WITH NO
SIGNIFICANT WEATHER AND/OR OBSTRUCTIONS TO VISIBILITY.

WIZ001-002-006>008-014>016-023>028-230500-
NORTHWEST WISCONSIN

CITY           SKY/WX    TMP DP  RH WIND       PRES   REMARKS
SUPERIOR ARPT    N/A     56  52  88 NW8       30.00R
ASHLAND        PTCLDY    56  52  86 W7        29.97R
HAYWARD        CLEAR     57  50  77 VRB3      30.00R
SIREN          PTCLDY    57  49  75 W3        30.02R
CUMBERLAND     CLEAR     54  46  76 W8        30.01R
RICE LAKE      PTCLDY    56  50  79 W5        30.02R
CHETEK         PTCLDY    60  49  67 W5        30.01R
LADYSMITH      CLEAR     58  52  79 W5        30.00S
EAU CLAIRE     CLEAR     58  50  75 W5        30.00R
MENOMONIE      CLEAR     59  52  79 W6        30.02R
NEW RICHMOND   CLEAR     56  48  73 W6        30.03S
OSCEOLA        PTCLDY    59  50  71 W7        30.05R
$$

WIZ003>005-009-010-017-018-230500-
NORTH CENTRAL WISCONSIN

CITY           SKY/WX    TMP DP  RH WIND       PRES   REMARKS
MANITOWISH WTR PTCLDY    53  53 100 NW5       29.95S
ARBOR VITAE    PTCLDY    57  53  87 NW6       29.95S
WOODRUFF       PTCLDY    57  53  87 NW6       29.95S
RHINELANDER    PTCLDY    58  51  78 W10       29.95S
EAGLE RIVER    PTCLDY    56  50  81 NW7       29.93S
LAND O LAKES   CLEAR     55  52  90 NW6       29.94S
PHILLIPS       CLEAR     55  53  90 W6        29.97R
TOMAHAWK         N/A     51  48  90 W5        29.97S
MEDFORD        PTCLDY    54  49  81 W5        29.98S
MERRILL        NOT AVBL
$$

WIZ029-030-035-036-043>047-230500-
CENTRAL WISCONSIN

CITY           SKY/WX    TMP DP  RH WIND       PRES   REMARKS
WAUSAU         CLEAR     58  50  75 W8        29.95S
MOSINEE        CLEAR     55  50  82 W7        29.98S
MARSHFIELD     CLEAR     56  48  74 W7        29.98S
STEVENS POINT  CLEAR     58  48  70 SW5       29.98S
WAUPACA        CLEAR     62  49  62 W5        29.97R
WAUTOMA        CLEAR     55  51  86 W6        29.98S
WISC RAPIDS    CLEAR     58  50  75 W7        29.99S
CAMP DOUGLAS   CLEAR     52  48  87 W7        30.00S
$$

WIZ011>013-019>022-031-037>040-048>050-230500-
NORTHEAST WISCONSIN

CITY           SKY/WX    TMP DP  RH WIND       PRES   REMARKS
ANTIGO         CLEAR     54  50  86 W7        29.95S
SHAWANO        CLEAR     62  50  64 W7        29.93S
OCONTO         CLEAR     57  51  78 W6        29.90S
STURGEON BAY   MOCLDY    64  53  67 W7        29.90F
GREEN BAY      CLEAR     58  52  80 W8        29.93S
MANITOWOC      CLEAR     62  50  64 W5        29.94S
APPLETON       PTCLDY    57  46  67 VRB6      29.95R
CLINTONVILLE   CLEAR     61  46  59 W7        29.94S
OSHKOSH        CLEAR     60  49  66 W6        29.96R
$$

WIZ032>034-041-042-053>061-230500-
SOUTHWEST WISCONSIN

CITY           SKY/WX    TMP DP  RH WIND       PRES   REMARKS
LA CROSSE      NOT AVBL
SPARTA         CLEAR     51  49  95 CALM      30.02S
VIROQUA        CLEAR     56  53  89 SW6       30.05R
BOSCOBEL       CLEAR     56  53  90 CALM      30.04R
PRAIRIE DU CHI CLEAR     63  49  60 W12       30.05R
PLATTEVILLE    CLEAR     56  54  92 SW5       30.05S
$$

WIZ056-057-062-063-064-067-068-230500-
SOUTH CENTRAL WISCONSIN

CITY           SKY/WX    TMP DP  RH WIND       PRES   REMARKS
REEDSBURG      CLEAR     58  51  77 W3        30.02R
BARABOO/DELLS  CLEAR     58  49  73 W5        30.02R
LONE ROCK      CLEAR     55  53  93 W3        30.03R
MINERAL POINT  CLEAR     59  54  82 W5        30.04S
MADISON        CLEAR     61  52  72 VRB5      30.01R
MIDDLETON      CLEAR     58  52  81 W7        30.02R
WATERTOWN      CLEAR     60  53  78 W5        29.99R
MONROE         CLEAR     61  50  67 W12       30.03S
JANESVILLE     CLEAR     59  52  77 W5        30.01S
$$

WIZ051-052-058>065-066-070>072-230500-
SOUTHEAST WISCONSIN

CITY           SKY/WX    TMP DP  RH WIND       PRES   REMARKS
MILWAUKEE      CLEAR     68  51  54 W8        29.97R
WAUKESHA       CLEAR     59  50  72 W8        30.00R
MILWAUKEE/TIMM CLEAR     63  46  55 W9        29.99R
RACINE         PTCLDY    63  53  70 W6        29.99R
KENOSHA        CLEAR     60  51  72 W7        29.99R
FOND DU LAC    CLEAR     62  49  62 W7        29.97S
SHEBOYGAN      CLEAR     61  52  72 W5        29.95R
WEST BEND      CLEAR     61  50  67 W6        29.97S
JUNEAU         CLEAR     59  50  72 CALM      30.00R
$$

LSZ147-162-230500-
LAKE SUPERIOR

STATION/POSITION TIME  TEMP    WIND        PRES    WAVE
                       AIR SEA DIR/SP/G            HT/PER
                 (UTC) (F)     (DEG/KT/KT) (MB)    (FT/S)
W MID LAKE BUOY  0350   62 60  310/ 16/ 21 1012.1R   3/ 4
DEVILS ISLAND    0400   61     300/ 14/ 17 1014.1R
PORT WING        0230   66     320/ 10/ 12 1014.6
SAXON HARBOR     0330   61     270/  7/ 11 1013.9R
$$

LMZ867-665-643>646-230500-
LAKE MICHIGAN

STATION/POSITION TIME  TEMP    WIND        PRES    WAVE
                       AIR SEA DIR/SP/G            HT/PER
                 (UTC) (F)     (DEG/KT/KT) (MB)    (FT/S)
S GREEN BAY BUOY 0400   66 71  260/ 14/ 16 1012.4
N MID LAKE BUOY  0350   66 67  290/ 19/ 23 1010.7F   3/ 4
NORTHPORT PIER   0340   65     300/  8/ 16 1011.2S
KEWAUNEE LAKESHO 0400   61     300/  3/  5 1012.1
SHEBOYGAN LAKESH 0400   65     290/  8/  9 1013.6R
PORT WASHINGTON  0340   65     270/  4/  7 1015.2R
ATWATER BUOY     0309   68 68  270/ 12/ 14 1014.7R
MILWAUKEE LAKESH 0400   67     280/  9/ 11   N/A
S MID LAKE BUOY  0350   71 71  320/ 16/ 19 1013.9R   4/ 5
KENOSHA   LAKESH 0400   66     280/ 11/ 14 1014.9
$$

TC  - TEMPERATURE IN CELSIUS
VSB - VISIBILITY IN STATUTE MILES
WCI - WIND CHILL INDEX
HX  - HEAT INDEX





USA.gov is the U.S. government's official web portal to all federal, state and local government web resources and services.